Flag for Canada Weather past 2 weeks in Annapolis County, Nova Scotia, Canada

Now
48 °F

Cool.


Feels Like: 45 °F
Forecast: 51 / 56 °F
Wind: 6 mph from Northeast

Location: Kejimkujik 1

Current Time: Oct 22, 2014 at 12:57:09 AM

Latest Report: Oct 22, 2014 at 12:00 AM


Visibility: N/A

Pressure: 30.20 "Hg

Humidity: 91%

Dew point: 45 °F

Location of Annapolis CountyLocation

Historic Weather in Annapolis County — Graph

°F

Annapolis County temperature yesterday

Maximum temperature yesterday: 57 °F (at 1:00 PM)
Minimum temperature yesterday: 33 °F (at 7:00 AM)
Average temperature yesterday: 45 °F

Past Weeks' High & Low Weather Summary

 TemperatureHumidityPressure
High72 °F (Oct 15, 1:00 PM)100% (Oct 12, 12:00 AM)30.35 "Hg (Oct 12, 12:00 AM)
Low33 °F (Oct 21, 7:00 AM)45% (Oct 9, 3:00 PM)29.51 "Hg (Oct 19, 2:00 AM)
Average53 °F87%29.99 "Hg
* Reported Oct 6 11:00 PM — Oct 21 11:00 PM, Annapolis County, Weather by CustomWeather, © 2014

Note: Actual official high and low records may vary slightly from our data, if they occured in-between our weather recording intervals... More about our weather records

Advertising

Annapolis County weather history for previous 24 hours

 ConditionsComfort  
Time TempWeatherWind HumidityBarometerVisibility
11:00 PM
Oct 21
49 °FCool.6 mph91%30.19 "HgN/A
10:00 PM49 °FCool.5 mph90%30.19 "HgN/A
9:00 PM50 °FCool.6 mph88%30.19 "HgN/A
8:00 PM50 °FCool.5 mph85%30.18 "HgN/A
7:00 PM50 °FCool.6 mph82%30.17 "HgN/A
6:00 PM53 °FCool.3 mph77%30.16 "HgN/A
5:00 PM54 °FCool.3 mph66%30.14 "HgN/A
4:00 PM56 °FCool.1 mph61%30.14 "HgN/A
3:00 PM56 °FCool.3 mph60%30.14 "HgN/A
2:00 PM56 °FRefreshingly cool.6 mph59%30.14 "HgN/A
1:00 PM57 °FCool.5 mph61%30.15 "HgN/A
12:00 PM56 °FRefreshingly cool.3 mph60%30.14 "HgN/A
11:00 AM51 °FCool.1 mph75%30.14 "HgN/A
10:00 AM44 °FQuite cool.2 mph96%30.14 "HgN/A
9:00 AM36 °FChilly.2 mph98%30.12 "HgN/A
8:00 AM33 °FChilly.1 mph95%30.10 "HgN/A
7:00 AM33 °FChilly.3 mph100%30.08 "HgN/A
6:00 AM36 °FChilly.2 mph97%30.08 "HgN/A
5:00 AM35 °FChilly.2 mph97%30.06 "HgN/A
4:00 AM34 °FChilly.3 mph98%30.05 "HgN/A
3:00 AM33 °FChilly.1 mph93%30.04 "HgN/A
2:00 AM35 °FChilly.1 mph97%30.02 "HgN/A
1:00 AM35 °FChilly.2 mph96%30.02 "HgN/A
12:00 AM36 °FChilly.2 mph95%30.00 "HgN/A
Weather by CustomWeather, © 2014

See weather overviewHow to use our weather pages